Meteo Giornale » Osservazioni meteo Italia » Firenze-Peretola

ore: 07:50 - Osservazioni Meteo Firenze-Peretola
Lat. 43° 48' N Lon. 11° 12' E Alt. 40 metri s.l.m.

molto_nuvoloso Europe/Rome

23 °C

Molto Nuvoloso

Temp. 24 Ore

21 °C

30 °C

Nord

5.5 Km/h

Dew point 18 °C

Umidità 73 %

Visibilità  10 Km

Il sole sorge alle ore 07:03

Il sole tramonta alle ore 19:10

Data e Ora Cielo e Fenomeni T °C DP °C Um. % Pres. hPa Vis. km Vento km/h
Oggi h: 07:50 molto_nuvoloso Molto Nuvoloso 23 18 73 1013 10 N 5.5
Oggi h: 07:20 molto_nuvoloso Molto Nuvoloso 23 18 73 1012 10 E/SE 9.3
Oggi h: 06:50 molto_nuvoloso Molto Nuvoloso 23 19 78 1013 10 N 5.5
Oggi h: 06:20 molto_nuvoloso Molto Nuvoloso 23 18 73 1013 10 N 5.5
Oggi h: 05:50 molto_nuvoloso Molto Nuvoloso 23 18 73 1013 10 N 5.5
Oggi h: 05:20 nuvoloso Nuvoloso 22 19 83 1013 10 7.4
Oggi h: 03:20 nuvoloso Nuvoloso 23 18 73 1013 10 N 3.7
Oggi h: 01:50 nuvoloso Nuvoloso 23 18 73 1014 10 S/SE 7.4
Oggi h: 01:20 nuvoloso Nuvoloso 22 18 78 1014 10 S/SE 11.1
Oggi h: 00:50 nuvoloso Nuvoloso 23 18 73 1015 10 S/SE 13
Oggi h: 00:20 nuvoloso Nuvoloso 23 18 73 1015 10 SE 9.3
Ieri h: 23:50 poco_nuvoloso Poco Nuvoloso 23 18 73 1016 10 S/SE 11.1
Ieri h: 23:20 poco_nuvoloso Poco Nuvoloso 23 18 73 1016 10 S/SE 9.3
Ieri h: 22:50 nuvoloso Nuvoloso 24 19 73 1016 10 S/SO 9.3
Ieri h: 22:20 nuvoloso Nuvoloso 24 19 73 1016 10 SO 13
Ieri h: 21:50 nuvoloso Nuvoloso 25 19 69 1016 10 O/SO 16.7
Ieri h: 21:20 nuvoloso Nuvoloso 25 19 69 1016 10 SO 16.7
Ieri h: 20:50 molto_nuvoloso Molto Nuvoloso 26 19 65 1016 10 O/SO 16.7
Ieri h: 20:20 molto_nuvoloso Molto Nuvoloso 26 19 65 1016 10 O/SO 16.7
Ieri h: 19:50 molto_nuvoloso Molto Nuvoloso 26 20 69 1016 10 O/SO 20.3
Ieri h: 19:20 molto_nuvoloso Molto Nuvoloso 28 19 58 1016 10 O/SO 18.5
Ieri h: 18:50 molto_nuvoloso Molto Nuvoloso 29 18 51 1015 10 O/SO 14.8
Ieri h: 18:20 molto_nuvoloso Molto Nuvoloso 29 18 51 1015 10 S/SO 9.3
Ieri h: 17:50 nuvoloso Nuvoloso 29 18 51 1016 10 S/SO 14.8
Ieri h: 17:20 nuvoloso Nuvoloso 29 18 51 1016 10 S 11.1
Ieri h: 16:50 nuvoloso Nuvoloso 30 18 48 1016 10 S 13
Ieri h: 16:20 nuvoloso Nuvoloso 30 18 48 1016 10 S 9.3
Ieri h: 15:50 nuvoloso Nuvoloso 30 18 48 1017 10 S 9.3
Ieri h: 15:20 poco_nuvoloso Poco Nuvoloso 29 17 48 1017 10 S/SO 9.3
Ieri h: 14:50 poco_nuvoloso Poco Nuvoloso 30 16 42 1017 10 S/SE 9.3
Ieri h: 14:20 poco_nuvoloso Poco Nuvoloso 30 17 45 1018 10 S 16.7
Ieri h: 13:50 poco_nuvoloso Poco Nuvoloso 29 18 51 1018 10 N 5.5
Ieri h: 13:20 poco_nuvoloso Poco Nuvoloso 29 18 51 1019 10 N 5.5
Ieri h: 12:50 poco_nuvoloso Poco Nuvoloso 28 18 54 1019 10 N 7.4
Ieri h: 12:20 poco_nuvoloso Poco Nuvoloso 27 18 57 1019 10 E 7.4
Ieri h: 11:50 nuvoloso Nuvoloso 27 18 57 1019 10 N 7.4
Ieri h: 11:20 poco_nuvoloso Poco Nuvoloso 25 18 65 1019 10 N 3.7
Ieri h: 10:50 nuvoloso Nuvoloso 26 19 65 1019 10 S 7.4
Ieri h: 10:20 poco_nuvoloso Poco Nuvoloso 25 19 69 1019 10 N 5.5
Ieri h: 09:50 nuvoloso Nuvoloso 23 19 78 1019 10 N 1.8
Ieri h: 09:20 nuvoloso Nuvoloso 23 19 78 1019 10 N 1.8
Ieri h: 08:50 poco_nuvoloso Poco Nuvoloso 21 18 82 1019 10 N 1.8